Location: Canyon City
(32.5951°N, 116.5278°W)
Time: 01:53:26
(UTC+00:00)

USA 215 - Pass Details

Date: 08 September 2024
Orbit: 1099 x 1108 km, 123.0° (Epoch: 25 September)

Event Time Altitude Azimuth Distance (km) Brightness Sun altitude
Rises 12:57:56 0° 141° (SE) 3,902 6.6 -6.6°
Reaches altitude 10° 13:00:24 10° 143° (SE) 2,946 5.9 -6.1°
Maximum altitude 13:06:55 76° 229° (SW) 1,129 3.3 -4.8°
Drops below altitude 10° 13:13:26 10° 315° (NW) 2,955 5.2 -3.4°
Sets 13:15:56 0° 317° (NW) 3,915 5.8 -2.9°
